[Iaude] MPEC G171: 2024 GF4 [a=1.34,e=0.11,i=5.7,H=23.2]

mpec at cfa.harvard.edu mpec at cfa.harvard.edu
Fri Apr 12 03:07:46 EDT 2024


M.P.E.C. 2024-G171                               Issued 2024 April 12, 07:06 UT

     The Minor Planet Electronic Circulars contain information on unusual
         minor planets, routine data on comets and natural satellites,
         and occasional editorial announcements.  They are published
    on behalf of Division F of the International Astronomical Union by the
          Minor Planet Center, Smithsonian Astrophysical Observatory,
                          Cambridge, MA 02138, U.S.A.
			  
             Prepared using the Tamkin Foundation Computer Network

                              MPC at CFA.HARVARD.EDU
            URL https://www.minorplanetcenter.net/    ISSN 1523-6714

                                    2024 GF4                                    


Observations:
     K24G04F* C2024 04 10.30420812 03 04.120-15 11 10.36         21.53wXEG171F51
     K24G04F  C2024 04 10.31674412 03 03.350-15 10 52.93         22.10wXEG171F51
     K24G04F  C2024 04 10.34263712 03 01.722-15 10 17.05         21.34wXEG171F51
     K24G04F  C2024 04 10.41313012 02 57.307-15 08 38.07         21.46GVEG171F51
     K24G04F  C2024 04 10.41394412 02 57.259-15 08 37.08         21.47GVEG171F51
     K24G04F |C2024 04 11.10052012 02 25.000-14 51 59.30         21.4 GVEG171807
     K24G04F |C2024 04 11.11153012 02 24.320-14 51 44.60         21.4 GVEG171807
     K24G04F |C2024 04 11.12254012 02 23.680-14 51 28.80         21.4 GVEG171807
     K24G04F  C2024 04 11.33293812 02 12.494-14 47 02.58         21.2 GVEG171H01
     K24G04F  C2024 04 11.33664912 02 12.286-14 46 57.19         21.3 GVEG171H01
     K24G04F  C2024 04 11.34669312 02 11.704-14 46 42.70         21.3 GVEG171H01
     K24G04F  C2024 04 11.35331312 02 11.335-14 46 33.10         21.1 GVEG171H01
     K24G04F KC2024 04 12.25497 12 01 31.35 -14 25 03.7          21.8 RVEG171691
     K24G04F KC2024 04 12.26427 12 01 30.81 -14 24 50.1          21.4 RVEG171691
     K24G04F KC2024 04 12.27357 12 01 30.29 -14 24 37.1          21.3 RVEG171691

Observer details:
691 Steward Observatory, Kitt Peak-Spacewatch.  Observer R. A. Mastaler.
    0.9-m f/3 reflector + CCD.
807 Cerro Tololo Observatory, La Serena.  Observers T. Linder, R. Holmes.
    0.61-m f/6.8 Ritchey-Chretien + CCD.
F51 Pan-STARRS 1, Haleakala.  Observers J. Herman, T. Lowe, P. Minguez, A.
    Schultz, I. Smith.  Measurers K. Chambers, T. de Boer, J. Fairlamb, H.
    Gao, M. Huber, C.-C. Lin, E. Magnier, Y. Ramanjooloo, R. Wainscoat, R.
    Weryk.  1.8-m Ritchey-Chretien + CCD.
H01 Magdalena Ridge Observatory, Socorro.  Observers W. H. Ryan, E. V. Ryan.
    Measurer W. H. Ryan.  2.4-m f/8.9 Ritchey-Chretien + CCD.

Orbital elements:
2024 GF4                                                 Earth MOID = 0.1876 AU
Epoch 2024 Mar. 31.0 TT = JDT 2460400.5                 MPC                     
M 304.03546              (2000.0)            P               Q                  
n   0.63702637     Peri.   29.22554     -0.22542303     +0.97150865             
a   1.3377176      Node   227.85065     -0.91194282     -0.23684086             
e   0.1057421      Incl.    5.66467     -0.34284800     -0.00879429             
P   1.55           H   23.23          G   0.15           U   8                  
Residuals in seconds of arc
240410 F51  0.2+  0.1-    240411 807  0.0   0.5+    240411 H01  0.0   0.1-
240410 F51  0.3+  0.0     240411 807  0.4-  0.3-    240411 H01  0.0   0.1-
240410 F51  0.0   0.0     240411 807  0.1-  0.0     240412 691  0.2+  0.2+
240410 F51  0.0   0.2+    240411 H01  0.1+  0.0     240412 691  0.0   0.4+
240410 F51  0.1+  0.0     240411 H01  0.1+  0.0     240412 691  0.1+  0.0

Ephemeris:
2024 GF4                 a,e,i = 1.34, 0.11, 6                   q = 1.1963
Date    TT    R. A. (2000) Decl.     Delta      r    Elong.  Phase     V
2024 03 13    12 29 07.3 -21 47 58   0.3332  1.2969   151.7    21.3    22.4
...
2024 03 28    12 16 06.1 -19 33 36   0.2856  1.2741   163.2    13.1    21.8
...
2024 04 05    12 07 53.5 -17 08 40   0.2707  1.2626   163.7    12.8    21.7
...
2024 04 11    12 02 29.3 -14 54 32   0.2645  1.2543   160.2    15.7    21.7
2024 04 12    12 01 42.8 -14 30 47   0.2639  1.2529   159.4    16.3    21.7
2024 04 13    12 00 59.0 -14 06 46   0.2634  1.2516   158.6    17.0    21.7
...
2024 04 19    11 57 40.3 -11 39 42   0.2625  1.2438   152.9    21.6    21.8
...
2024 04 27    11 56 31.8 -08 28 09   0.2666  1.2341   144.9    28.0    22.1
...
2024 05 12    12 05 12.2 -03 36 16   0.2870  1.2184   131.1    38.6    22.5

A. U. Tomatic                (C) Copyright 2024 MPC           M.P.E.C. 2024-G171





More information about the Iaude mailing list